Location: Carlisle
(34.5501°N, 84.5969°W)
Time: 22:11:41
(UTC+00:00)

ISS - Pass Details

Date: 05 December 2022
Orbit: 412 x 423 km, 51.6° (Epoch: 07 February)

Event Time Altitude Azimuth Distance (km) Brightness Sun altitude
Rises 22:51:12 0° 325° (NW) 2,346 0.2 -5.2°
Reaches altitude 10° 22:53:44 10° 345° (NNW) 1,484 -1.1 -5.7°
Maximum altitude 22:56:09 18° 32° (NNE) 1,079 -2.1 -6.2°
Drops below altitude 10° 22:58:34 10° 78° (ENE) 1,486 -1.6 -6.6°
Enters shadow 22:59:09 - 85° (E) 1,666 -1.3 -6.7°
